SCP
0 0 0 0 0 0 0 0 0 0 -0 -0 -0 -0 -0 -0 -0 -0 -0 -0 0 0 0 0 0 0 0 0 0 0 0 0 0 0 0 0 0 0 0 0 0 0 0 0 0 0 0
0 0 0 0 0 0 0 0 0 0 -0 -0 -0 -0 -0 -0 -0 -0 -0 -0 -0 0 0 0 0 0 0 0 0 0 0 0 0 0 0 0 0 0 0 0 0 0 0 0 0 0 0
0 0 0 0 0 0 0 0 0 0 0 -0 -0 -0 -0 -0 -0 -0 -0 -0 -0 0 0 0 0 0 0 0 0 0 0 0 0 0 0 0 0 0 0 0 0 0 0 0 0 0 0
0 0 0 0 0 0 0 0 0 0 0 0 -0 -0 -0 -0 -0 -0 -0 -0 -0 -0 0 0 0 0 0 0 -0 0 0 0 0 0 0 0 0 0 0 0 0 0 0 0 0 0 0
0 0 0 0 0 0 0 0 0 0 0 0 -0 -0 -0 -0 -0 -0 -0 -0 -0 0 0 0 0 0 0 0 0 0 0 0 0 0 0 0 0 0 0 0 0 0 0 0 0 0 0
0 0 0 0 0 0 0 0 0 0 0 0 0 -0 -0 -0 -0 -0 -0 -0 -0 0 0 0 0 0 0 0 0 0 0 0 0 0 0 0 0 0 0 0 0 0 0 0 0 0 0
0 0 0 0 0 0 0 0 0 0 0 0 0 0 -0 -0 -0 -0 0 0 0 0 0 0 0 0 0 0 -0 0 0 0 0 0 0 0 0 0 0 0 0 0 0 0 0 0 0
0 0 0 0 0 0 0 0 0 0 0 0 0 0 0 -0 -0 -0 0 0 0 0 -0 0 0 -0 -0 0 0 -0 0 0 0 0 0 0 0 0 0 0 0 0 0 0 0 0 0
0 0 0 0 0 0 0 0 0 0 0 0 0 0 0 0 0 0 0 0 0 0 0 0 -0 -0 -0 0 0 -0 0 0 0 0 0 0 0 0 0 0 0 0 0 0 -0 -0 -0
0 0 0 0 0 0 0 0 0 0 0 0 0 0 -0 0 0 0 0 0 -0 0 0 0 0 -0 -0 -0 0 -0 0 0 0 0 0 0 0 0 0 0 0 0 0 0 0 0 -0
0 0 0 0 0 0 0 0 0 0 0 0 0 -0 -0 -0 0 0 0 -0 0 0 0 0 0 0 0 0 0 0 0 0 0 0 0 0 0 0 0 0 0 0 0 0 0 0 0
0 0 0 0 0 0 0 0 0 0 0 0 0 -0 -0 0 0 0 0 -0 0 0 0 0 0 0 0 0 0 0 0 0 0 0 0 0 0 0 0 0 0 0 0 0 0 0 0
0 0 0 -0 0 0 0 0 0 0 -0 0 0 -0 0 0 0 -0 0 0 0 0 0 0 0 0 0 0 0 0 0 0 0 0 0 0 0 0 0 0 0 0 0 0 0 0 0
0 0 0 0 -0 -0 0 0 0 0 0 -0 -0 0 0 0 0 0 0 0 0 0 0 0 0 0 0 0 0 0 0 0 0 0 0 0 0 0 0 0 0 0 0 0 0 0 0
0 0 0 -0 0 -0 0 0 0 0 0 0 0 0 0 0 0 0 0 0 0 0 0 0 0 0 0 0 0 0 0 0 0 0 0 0 0 0 0 0 0 0 0 0 0 0 0
0 0 0 0 0 0 0 0 0 0 0 0 0 0 0 0 0 0 0 0 0 0 0 0 0 0 0 0 0 0 0 0 0 0 0 0 0 0 0 0 0 0 0 0 0 0 0
0 0 0 0 0 0 0 0 0 0 0 0 0 0 0 0 0 0 0 0 0 0 0 0 0 0 0 0 0 0 0 0 0 0 0 0 0 0 0 0 0 0 0 0 0 0 0
0 0 0 0 0 0 0 0 0 0 0 0 0 0 0 0 0 0 0 0 0 0 0 0 0 0 0 0 0 0 0 0 0 0 0 0 0 0 0 0 0 0 0 0 0 0 0
0 0 0 0 0 0 0 0 0 0 0 0 0 0 0 0 0 0 0 0 0 0 0 0 0 0 0 0 0 0 0 0 0 0 0 0 0 0 0 0 0 0 0 0 0 0 0
0 0 0 0 0 0 0 0 0 0 0 0 0 0 0 0 0 0 0 0 0 0 0 0 0 0 0 0 0 0 0 0 0 0 0 0 0 0 0 0 0 0 0 0 0 0 0
0 0 0 0 0 0 0 0 0 0 0 0 0 0 0 0 0 0 0 0 0 0 0 0 0 0 0 0 0 0 0 0 0 0 0 0 0 0 0 0 0 0 0 0 0 0 0
0 0 0 0 0 0 0 0 0 0 0 0 0 0 0 0 0 0 0 0 0 0 0 0 0 0 0 0 0 0 0 0 0 0 0 0 0 0 0 0 0 0 -0 0 0 0 0
0 0 0 0 0 0 0 0 0 0 0 0 0 0 0 0 0 0 0 0 0 0 0 0 0 0 0 0 0 0 0 0 0 0 0 0 0 0 -0 0 0 -0 0 0 0 0 0
0 0 0 0 0 0 0 0 0 0 0 0 0 0 0 0 0 0 0 0 0 0 0 0 0 0 0 0 -0 0 0 -0 0 0 0 0 0 0 0 0 0 0 0 0 0 0 0
0 0 0 0 0 0 0 0 0 0 0 0 0 0 0 0 0 0 0 0 0 0 0 0 0 0 0 0 0 0 0 0 0 0 -0 -0 0 0 0 0 0 0 0 0 0 0 0
0 0 0 0 0 0 0 0 0 0 0 0 0 0 0 0 0 0 0 0 0 0 0 0 0 0 0 0 0 0 0 0 0 0 0 0 0 0 0 0 0 0 0 0 0 0 0
0 0 0 0 0 0 0 0 0 0 0 0 0 0 0 0 0 0 0 0 0 0 0 0 0 0 0 0 0 0 0 0 0 0 0 0 0 0 0 0 0 0 0 0 0 0 0
0 0 0 0 0 0 0 0 0 0 0 0 0 0 0 0 0 0 0 0 0 0 0 0 0 0 0 0 0 0 0 0 0 0 0 0 0 0 0 0 -0 0 0 0 0 0 0
0 0 0 0 0 0 0 0 0 0 0 0 0 0 0 0 0 0 0 0 0 0 0 0 0 0 0 0 0 0 0 0 0 0 0 0 0 0 0 0 0 0 0 0 0 0 0
Wind_Speed_500mb
44 46 47 47 46 46 47 47 46 46 46 45 45 44 44 41 40 40 39 29 24 20 17 18 21 14 10 8 2 3 5 10 10 7 3 8 12 7 5 3 1 5 4 6 9 16 27
44 46 48 49 49 48 48 47 48 47 46 47 46 47 45 43 40 40 36 27 20 18 15 14 15 11 8 6 9 5 8 12 11 11 3 6 1 1 4 4 4 1 5 13 9 14 16
46 48 48 48 48 48 48 47 48 49 49 46 48 49 48 44 39 36 29 21 16 14 12 10 10 12 16 19 10 8 7 9 13 11 10 5 4 3 1 5 1 5 5 8 15 21 15
47 50 50 49 49 48 48 49 49 50 51 51 48 46 47 44 37 29 20 15 13 9 10 10 9 13 13 7 16 10 9 5 4 4 10 12 15 8 4 2 10 5 8 3 7 3 12
51 53 53 51 49 49 49 49 50 51 52 52 50 46 43 39 32 19 13 12 9 5 8 9 9 8 9 9 13 12 8 6 9 8 8 17 7 4 5 8 9 10 2 1 14 10 7
53 56 57 53 49 48 48 49 53 56 56 54 49 43 39 33 22 16 9 15 15 13 10 2 7 8 2 6 6 11 14 17 12 9 3 5 4 6 6 7 5 2 4 4 8 10 12
55 59 58 55 49 48 48 53 55 57 58 56 50 42 33 22 13 15 20 2 7 3 20 13 17 19 28 10 3 15 8 6 8 3 3 7 8 6 13 14 5 2 5 7 7 6 13
59 60 59 54 49 52 56 58 60 59 59 55 47 36 26 10 9 11 15 12 12 13 17 18 25 35 34 28 12 21 15 14 4 2 2 10 3 9 6 7 7 8 5 5 7 9 5
59 60 60 56 56 58 62 64 63 63 59 54 40 31 18 1 6 10 15 17 12 14 5 14 5 8 8 19 12 11 10 6 5 3 6 9 8 3 2 4 6 3 6 4 9 8 9
59 61 61 59 59 60 61 65 65 63 59 51 37 24 10 9 10 8 4 13 21 11 7 7 5 0 9 7 8 12 26 10 2 10 8 8 5 6 3 6 9 5 9 6 4 8 5
59 61 62 60 61 62 63 62 65 63 57 45 32 19 5 14 6 2 13 19 12 4 6 4 2 3 4 9 9 3 16 22 13 7 6 10 8 5 3 5 8 8 4 2 3 5 3
59 61 57 57 59 62 62 62 63 62 52 39 25 16 7 6 3 11 22 13 1 9 2 7 6 11 9 7 8 11 10 14 4 8 4 13 5 8 11 5 4 5 6 9 7 4 3
62 60 55 57 60 62 61 61 61 59 43 32 23 20 14 10 11 23 18 1 8 7 6 7 5 8 5 6 7 3 5 2 10 5 7 4 2 5 5 7 6 11 11 8 9 7 9
59 61 56 56 60 64 64 62 60 56 35 17 22 19 14 13 18 23 12 8 5 4 4 5 6 13 10 6 3 10 8 2 9 4 4 9 6 9 4 7 10 7 12 9 9 6 9
55 60 61 57 57 59 63 64 58 53 39 8 8 18 18 16 22 24 6 7 10 2 8 8 12 6 3 2 7 10 8 5 3 3 7 7 7 5 3 6 13 4 6 6 3 5 5
52 56 62 57 56 58 59 61 60 52 46 21 14 14 16 20 24 18 9 6 5 4 9 5 7 4 5 5 5 1 5 3 6 4 1 5 3 4 5 5 1 10 11 4 5 4 9
48 52 58 61 55 55 58 58 57 53 48 36 14 4 12 21 19 7 6 8 8 9 10 6 6 8 9 6 7 5 7 6 9 17 13 5 6 6 3 10 14 2 3 7 6 9 8
47 48 54 60 57 53 53 56 58 58 50 41 11 4 14 19 9 4 0 2 11 11 10 9 6 8 9 8 7 7 10 10 21 4 8 7 8 8 15 6 5 10 14 12 8 9 7
43 46 49 56 58 55 51 51 53 56 54 47 19 9 11 15 4 6 12 10 9 6 7 7 7 5 5 2 5 7 6 12 11 7 7 8 3 3 10 2 7 5 8 9 5 4 22
41 43 44 49 56 57 53 51 50 50 47 36 12 7 9 14 10 5 8 10 8 10 4 11 8 4 7 4 7 8 4 7 7 4 19 5 11 12 13 9 7 7 14 12 11 10 18
41 43 44 45 50 55 56 51 50 48 43 24 15 2 2 7 4 4 4 6 7 7 12 14 7 11 5 8 8 12 10 6 14 24 12 13 15 14 16 18 14 23 33 35 30 37 24
39 41 43 45 46 51 58 54 48 46 41 17 10 8 6 9 13 8 4 4 3 7 5 8 5 14 10 10 15 32 5 7 11 10 7 2 4 7 7 17 24 34 38 38 40 40 37
38 39 41 40 46 47 51 49 51 47 43 15 11 6 6 6 5 2 6 4 4 8 14 19 8 11 12 22 21 37 45 41 24 11 8 5 6 3 9 2 12 18 30 24 14 13 15
37 38 40 37 41 45 50 44 44 47 42 30 17 6 0 7 3 7 6 13 22 8 8 35 37 10 16 53 59 54 52 48 38 33 29 11 10 6 8 4 10 10 8 10 14 14 15
37 37 38 38 38 40 45 45 39 37 37 31 22 3 2 7 9 20 14 10 19 31 11 18 30 17 38 34 8 12 6 4 2 6 15 19 10 6 6 7 14 13 4 3 7 13 11
37 34 36 35 36 37 39 43 42 34 31 25 15 8 2 10 9 11 7 10 5 7 11 10 34 28 15 3 4 5 5 6 5 2 10 11 15 5 2 3 10 8 5 13 8 17 8
38 33 34 33 33 34 36 40 40 39 30 23 13 9 7 10 17 5 9 6 4 4 6 13 19 15 13 6 3 4 5 8 4 5 4 6 6 15 12 10 15 7 10 5 1 5 27
38 34 33 32 32 33 35 37 36 38 34 22 13 11 8 13 43 25 14 18 14 9 5 11 14 6 9 8 5 6 5 4 6 6 6 6 6 6 5 7 14 5 2 6 10 53 59
37 33 32 33 31 29 35 37 34 35 33 24 18 16 24 24 37 63 42 37 45 36 23 9 6 2 5 4 4 2 5 5 1 5 6 5 9 6 13 11 10 13 31 42 58 44 46
Wind_Direction_500mb
9 5 2 359 357 359 356 355 355 354 354 356 354 351 345 339 335 332 326 316 306 300 300 313 325 327 319 305 147 156 11 14 21 34 82 108 147 178 205 196 335 169 299 326 290 263 256
4 2 360 356 354 353 350 350 347 347 346 345 347 347 344 341 335 332 328 317 304 291 288 304 316 322 294 278 177 211 282 316 321 331 352 129 178 296 168 149 154 270 297 288 264 234 235
7 2 360 357 353 353 351 350 349 347 344 342 338 339 340 342 338 335 332 321 308 292 271 289 301 311 272 238 198 201 286 315 315 299 282 304 313 283 90 318 288 268 305 301 221 224 226
6 1 358 356 354 354 352 350 348 348 345 342 338 335 337 341 340 342 339 333 321 296 264 279 295 303 263 181 202 234 240 282 293 274 266 272 282 267 210 290 10 48 59 22 288 147 246
4 1 359 356 354 354 352 352 351 349 347 342 339 335 337 341 343 1 4 352 332 283 252 263 283 287 272 213 230 206 241 266 279 323 309 257 267 164 105 81 4 6 145 299 320 34 338
5 2 357 355 352 352 352 351 350 348 347 345 341 338 337 343 357 34 41 45 65 92 77 16 265 304 275 331 270 244 270 273 274 306 321 149 144 82 48 81 214 226 356 306 257 325 5
6 3 2 0 356 354 357 353 349 346 343 342 339 336 340 348 38 63 47 12 8 325 307 244 268 270 290 297 264 244 251 236 252 25 31 21 74 211 251 209 175 109 186 230 285 348 9
4 4 3 3 5 358 353 350 348 346 343 339 335 333 342 349 73 68 60 76 21 308 305 295 266 256 258 273 293 261 254 230 140 272 46 23 211 212 269 164 182 180 175 230 288 285 301
2 3 3 4 358 356 350 349 350 349 346 342 336 333 342 198 108 104 81 46 2 326 280 297 273 247 233 228 235 277 203 194 164 177 189 163 240 3 96 109 132 156 160 222 237 311 290
1 1 2 360 357 354 354 353 353 352 349 345 337 340 351 161 145 129 53 349 332 316 40 294 301 15 177 205 267 262 230 202 139 219 185 219 261 155 133 200 141 197 202 215 261 31 292
1 1 2 1 358 356 356 358 357 355 354 351 350 355 14 162 138 116 332 325 317 306 53 281 325 8 253 204 312 270 227 204 209 202 102 259 181 226 359 212 175 201 160 332 294 241 103
360 1 4 3 3 360 358 360 2 359 359 0 9 20 60 135 118 332 322 331 228 48 237 330 25 354 350 271 280 278 206 205 176 166 200 248 238 182 201 115 101 77 40 34 51 76 20
359 1 6 6 4 2 1 360 4 4 7 17 35 50 80 49 348 331 327 256 43 117 334 334 317 342 296 298 341 9 260 75 181 132 238 259 211 302 138 108 48 73 52 340 345 3 234
0 2 4 6 3 2 1 0 4 6 13 38 47 47 42 14 359 352 343 58 106 284 301 285 289 300 204 351 360 335 23 69 37 69 150 174 304 167 179 145 188 189 152 158 244 229 245
358 3 2 3 2 2 0 0 4 5 5 9 39 35 19 4 356 354 352 66 195 275 308 290 314 259 276 87 13 23 12 22 7 328 226 155 270 308 185 175 137 170 173 192 153 8 32
356 0 2 360 2 1 1 359 1 5 1 345 319 314 8 4 348 348 75 225 230 259 307 270 229 251 254 299 329 304 242 148 341 287 306 176 304 276 312 83 278 159 161 86 21 258 259
354 356 360 360 359 1 1 0 357 359 1 353 334 302 353 350 345 27 118 239 283 290 336 280 262 264 257 247 221 245 232 223 148 263 359 163 184 266 279 198 199 168 170 75 132 154 202
348 351 356 360 357 0 1 0 359 357 360 3 1 1 345 341 34 24 153 262 302 276 290 279 245 238 225 219 232 246 232 229 204 165 215 190 163 223 234 270 226 170 192 156 137 244 216
343 348 351 357 357 357 359 0 1 358 357 356 352 319 341 354 76 339 320 300 268 303 317 316 307 27 7 271 284 248 280 89 78 160 189 182 239 283 316 20 356 162 181 185 184 128 233
336 341 345 353 356 356 355 359 0 0 358 356 5 10 353 44 67 75 347 275 289 327 288 343 287 25 358 306 228 272 297 300 12 180 296 221 189 206 225 233 153 282 258 222 215 245 271
330 337 341 347 352 354 352 356 360 3 4 5 19 61 34 303 349 328 242 278 289 321 341 358 353 53 338 285 305 254 263 306 298 296 289 181 226 206 236 249 269 259 262 260 244 249 246
323 330 337 340 344 354 349 351 359 4 10 18 21 7 334 280 297 309 223 232 291 360 306 292 46 319 291 230 234 283 274 207 224 288 188 35 268 170 256 235 242 258 260 254 253 253 256
317 325 331 335 337 350 348 351 352 1 10 27 11 329 306 279 317 350 240 262 239 23 276 256 335 289 270 274 289 280 267 254 240 214 214 179 142 28 268 227 295 272 253 241 218 218 205
310 319 325 331 331 345 344 351 353 355 3 8 358 343 348 280 244 222 287 299 287 262 262 279 286 271 274 312 303 287 261 252 245 240 219 183 151 191 267 32 244 236 238 231 226 249 247
304 314 321 326 327 339 340 344 349 355 352 356 2 351 272 276 260 291 254 245 298 304 257 270 295 290 314 309 309 326 344 188 58 213 196 208 171 236 251 218 296 276 36 202 187 278 258
296 306 314 320 323 328 339 338 338 350 348 349 341 358 227 293 250 276 319 289 281 299 319 280 312 326 323 259 250 315 292 318 352 50 68 162 181 207 356 274 250 244 140 109 98 278 63
290 302 309 315 318 319 337 333 333 338 347 343 332 294 328 267 282 334 231 249 267 247 269 296 332 331 358 325 323 287 280 316 333 316 324 132 196 222 242 255 279 260 157 128 323 321 321
284 295 304 310 309 318 330 328 332 334 335 345 332 306 289 267 286 270 264 240 244 214 204 309 342 350 335 27 327 2 326 331 340 279 297 198 200 219 237 237 269 148 98 224 277 310 298
277 286 297 303 303 314 323 324 332 333 329 329 330 306 294 275 273 300 295 279 259 246 255 241 229 320 255 32 352 289 325 325 254 288 322 287 193 215 185 230 247 285 257 292 309 291 307
Wind_Speed_850mb
44 46 47 47 46 46 47 47 46 46 46 45 45 44 44 41 40 40 39 29 24 20 17 18 21 14 10 8 2 3 5 10 10 7 3 8 12 7 5 3 1 5 4 6 9 16 27
44 46 48 49 49 48 48 47 48 47 46 47 46 47 45 43 40 40 36 27 20 18 15 14 15 11 8 6 9 5 8 12 11 11 3 6 1 1 4 4 4 1 5 13 9 14 16
46 48 48 48 48 48 48 47 48 49 49 46 48 49 48 44 39 36 29 21 16 14 12 10 10 12 16 19 10 8 7 9 13 11 10 5 4 3 1 5 1 5 5 8 15 21 15
47 50 50 49 49 48 48 49 49 50 51 51 48 46 47 44 37 29 20 15 13 9 10 10 9 13 13 7 16 10 9 5 4 4 10 12 15 8 4 2 10 5 8 3 7 3 12
51 53 53 51 49 49 49 49 50 51 52 52 50 46 43 39 32 19 13 12 9 5 8 9 9 8 9 9 13 12 8 6 9 8 8 17 7 4 5 8 9 10 2 1 14 10 7
53 56 57 53 49 48 48 49 53 56 56 54 49 43 39 33 22 16 9 15 15 13 10 2 7 8 2 6 6 11 14 17 12 9 3 5 4 6 6 7 5 2 4 4 8 10 12
55 59 58 55 49 48 48 53 55 57 58 56 50 42 33 22 13 15 20 2 7 3 20 13 17 19 28 10 3 15 8 6 8 3 3 7 8 6 13 14 5 2 5 7 7 6 13
59 60 59 54 49 52 56 58 60 59 59 55 47 36 26 10 9 11 15 12 12 13 17 18 25 35 34 28 12 21 15 14 4 2 2 10 3 9 6 7 7 8 5 5 7 9 5
59 60 60 56 56 58 62 64 63 63 59 54 40 31 18 1 6 10 15 17 12 14 5 14 5 8 8 19 12 11 10 6 5 3 6 9 8 3 2 4 6 3 6 4 9 8 9
59 61 61 59 59 60 61 65 65 63 59 51 37 24 10 9 10 8 4 13 21 11 7 7 5 0 9 7 8 12 26 10 2 10 8 8 5 6 3 6 9 5 9 6 4 8 5
59 61 62 60 61 62 63 62 65 63 57 45 32 19 5 14 6 2 13 19 12 4 6 4 2 3 4 9 9 3 16 22 13 7 6 10 8 5 3 5 8 8 4 2 3 5 3
59 61 57 57 59 62 62 62 63 62 52 39 25 16 7 6 3 11 22 13 1 9 2 7 6 11 9 7 8 11 10 14 4 8 4 13 5 8 11 5 4 5 6 9 7 4 3
62 60 55 57 60 62 61 61 61 59 43 32 23 20 14 10 11 23 18 1 8 7 6 7 5 8 5 6 7 3 5 2 10 5 7 4 2 5 5 7 6 11 11 8 9 7 9
59 61 56 56 60 64 64 62 60 56 35 17 22 19 14 13 18 23 12 8 5 4 4 5 6 13 10 6 3 10 8 2 9 4 4 9 6 9 4 7 10 7 12 9 9 6 9
55 60 61 57 57 59 63 64 58 53 39 8 8 18 18 16 22 24 6 7 10 2 8 8 12 6 3 2 7 10 8 5 3 3 7 7 7 5 3 6 13 4 6 6 3 5 5
52 56 62 57 56 58 59 61 60 52 46 21 14 14 16 20 24 18 9 6 5 4 9 5 7 4 5 5 5 1 5 3 6 4 1 5 3 4 5 5 1 10 11 4 5 4 9
48 52 58 61 55 55 58 58 57 53 48 36 14 4 12 21 19 7 6 8 8 9 10 6 6 8 9 6 7 5 7 6 9 17 13 5 6 6 3 10 14 2 3 7 6 9 8
47 48 54 60 57 53 53 56 58 58 50 41 11 4 14 19 9 4 0 2 11 11 10 9 6 8 9 8 7 7 10 10 21 4 8 7 8 8 15 6 5 10 14 12 8 9 7
43 46 49 56 58 55 51 51 53 56 54 47 19 9 11 15 4 6 12 10 9 6 7 7 7 5 5 2 5 7 6 12 11 7 7 8 3 3 10 2 7 5 8 9 5 4 22
41 43 44 49 56 57 53 51 50 50 47 36 12 7 9 14 10 5 8 10 8 10 4 11 8 4 7 4 7 8 4 7 7 4 19 5 11 12 13 9 7 7 14 12 11 10 18
41 43 44 45 50 55 56 51 50 48 43 24 15 2 2 7 4 4 4 6 7 7 12 14 7 11 5 8 8 12 10 6 14 24 12 13 15 14 16 18 14 23 33 35 30 37 24
39 41 43 45 46 51 58 54 48 46 41 17 10 8 6 9 13 8 4 4 3 7 5 8 5 14 10 10 15 32 5 7 11 10 7 2 4 7 7 17 24 34 38 38 40 40 37
38 39 41 40 46 47 51 49 51 47 43 15 11 6 6 6 5 2 6 4 4 8 14 19 8 11 12 22 21 37 45 41 24 11 8 5 6 3 9 2 12 18 30 24 14 13 15
37 38 40 37 41 45 50 44 44 47 42 30 17 6 0 7 3 7 6 13 22 8 8 35 37 10 16 53 59 54 52 48 38 33 29 11 10 6 8 4 10 10 8 10 14 14 15
37 37 38 38 38 40 45 45 39 37 37 31 22 3 2 7 9 20 14 10 19 31 11 18 30 17 38 34 8 12 6 4 2 6 15 19 10 6 6 7 14 13 4 3 7 13 11
37 34 36 35 36 37 39 43 42 34 31 25 15 8 2 10 9 11 7 10 5 7 11 10 34 28 15 3 4 5 5 6 5 2 10 11 15 5 2 3 10 8 5 13 8 17 8
38 33 34 33 33 34 36 40 40 39 30 23 13 9 7 10 17 5 9 6 4 4 6 13 19 15 13 6 3 4 5 8 4 5 4 6 6 15 12 10 15 7 10 5 1 5 27
38 34 33 32 32 33 35 37 36 38 34 22 13 11 8 13 43 25 14 18 14 9 5 11 14 6 9 8 5 6 5 4 6 6 6 6 6 6 5 7 14 5 2 6 10 53 59
37 33 32 33 31 29 35 37 34 35 33 24 18 16 24 24 37 63 42 37 45 36 23 9 6 2 5 4 4 2 5 5 1 5 6 5 9 6 13 11 10 13 31 42 58 44 46
Wind_Direction_850mb
9 5 2 359 357 359 356 355 355 354 354 356 354 351 345 339 335 332 326 316 306 300 300 313 325 327 319 305 147 156 11 14 21 34 82 108 147 178 205 196 335 169 299 326 290 263 256
4 2 360 356 354 353 350 350 347 347 346 345 347 347 344 341 335 332 328 317 304 291 288 304 316 322 294 278 177 211 282 316 321 331 352 129 178 296 168 149 154 270 297 288 264 234 235
7 2 360 357 353 353 351 350 349 347 344 342 338 339 340 342 338 335 332 321 308 292 271 289 301 311 272 238 198 201 286 315 315 299 282 304 313 283 90 318 288 268 305 301 221 224 226
6 1 358 356 354 354 352 350 348 348 345 342 338 335 337 341 340 342 339 333 321 296 264 279 295 303 263 181 202 234 240 282 293 274 266 272 282 267 210 290 10 48 59 22 288 147 246
4 1 359 356 354 354 352 352 351 349 347 342 339 335 337 341 343 1 4 352 332 283 252 263 283 287 272 213 230 206 241 266 279 323 309 257 267 164 105 81 4 6 145 299 320 34 338
5 2 357 355 352 352 352 351 350 348 347 345 341 338 337 343 357 34 41 45 65 92 77 16 265 304 275 331 270 244 270 273 274 306 321 149 144 82 48 81 214 226 356 306 257 325 5
6 3 2 0 356 354 357 353 349 346 343 342 339 336 340 348 38 63 47 12 8 325 307 244 268 270 290 297 264 244 251 236 252 25 31 21 74 211 251 209 175 109 186 230 285 348 9
4 4 3 3 5 358 353 350 348 346 343 339 335 333 342 349 73 68 60 76 21 308 305 295 266 256 258 273 293 261 254 230 140 272 46 23 211 212 269 164 182 180 175 230 288 285 301
2 3 3 4 358 356 350 349 350 349 346 342 336 333 342 198 108 104 81 46 2 326 280 297 273 247 233 228 235 277 203 194 164 177 189 163 240 3 96 109 132 156 160 222 237 311 290
1 1 2 360 357 354 354 353 353 352 349 345 337 340 351 161 145 129 53 349 332 316 40 294 301 15 177 205 267 262 230 202 139 219 185 219 261 155 133 200 141 197 202 215 261 31 292
1 1 2 1 358 356 356 358 357 355 354 351 350 355 14 162 138 116 332 325 317 306 53 281 325 8 253 204 312 270 227 204 209 202 102 259 181 226 359 212 175 201 160 332 294 241 103
360 1 4 3 3 360 358 360 2 359 359 0 9 20 60 135 118 332 322 331 228 48 237 330 25 354 350 271 280 278 206 205 176 166 200 248 238 182 201 115 101 77 40 34 51 76 20
359 1 6 6 4 2 1 360 4 4 7 17 35 50 80 49 348 331 327 256 43 117 334 334 317 342 296 298 341 9 260 75 181 132 238 259 211 302 138 108 48 73 52 340 345 3 234
0 2 4 6 3 2 1 0 4 6 13 38 47 47 42 14 359 352 343 58 106 284 301 285 289 300 204 351 360 335 23 69 37 69 150 174 304 167 179 145 188 189 152 158 244 229 245
358 3 2 3 2 2 0 0 4 5 5 9 39 35 19 4 356 354 352 66 195 275 308 290 314 259 276 87 13 23 12 22 7 328 226 155 270 308 185 175 137 170 173 192 153 8 32
356 0 2 360 2 1 1 359 1 5 1 345 319 314 8 4 348 348 75 225 230 259 307 270 229 251 254 299 329 304 242 148 341 287 306 176 304 276 312 83 278 159 161 86 21 258 259
354 356 360 360 359 1 1 0 357 359 1 353 334 302 353 350 345 27 118 239 283 290 336 280 262 264 257 247 221 245 232 223 148 263 359 163 184 266 279 198 199 168 170 75 132 154 202
348 351 356 360 357 0 1 0 359 357 360 3 1 1 345 341 34 24 153 262 302 276 290 279 245 238 225 219 232 246 232 229 204 165 215 190 163 223 234 270 226 170 192 156 137 244 216
343 348 351 357 357 357 359 0 1 358 357 356 352 319 341 354 76 339 320 300 268 303 317 316 307 27 7 271 284 248 280 89 78 160 189 182 239 283 316 20 356 162 181 185 184 128 233
336 341 345 353 356 356 355 359 0 0 358 356 5 10 353 44 67 75 347 275 289 327 288 343 287 25 358 306 228 272 297 300 12 180 296 221 189 206 225 233 153 282 258 222 215 245 271
330 337 341 347 352 354 352 356 360 3 4 5 19 61 34 303 349 328 242 278 289 321 341 358 353 53 338 285 305 254 263 306 298 296 289 181 226 206 236 249 269 259 262 260 244 249 246
323 330 337 340 344 354 349 351 359 4 10 18 21 7 334 280 297 309 223 232 291 360 306 292 46 319 291 230 234 283 274 207 224 288 188 35 268 170 256 235 242 258 260 254 253 253 256
317 325 331 335 337 350 348 351 352 1 10 27 11 329 306 279 317 350 240 262 239 23 276 256 335 289 270 274 289 280 267 254 240 214 214 179 142 28 268 227 295 272 253 241 218 218 205
310 319 325 331 331 345 344 351 353 355 3 8 358 343 348 280 244 222 287 299 287 262 262 279 286 271 274 312 303 287 261 252 245 240 219 183 151 191 267 32 244 236 238 231 226 249 247
304 314 321 326 327 339 340 344 349 355 352 356 2 351 272 276 260 291 254 245 298 304 257 270 295 290 314 309 309 326 344 188 58 213 196 208 171 236 251 218 296 276 36 202 187 278 258
296 306 314 320 323 328 339 338 338 350 348 349 341 358 227 293 250 276 319 289 281 299 319 280 312 326 323 259 250 315 292 318 352 50 68 162 181 207 356 274 250 244 140 109 98 278 63
290 302 309 315 318 319 337 333 333 338 347 343 332 294 328 267 282 334 231 249 267 247 269 296 332 331 358 325 323 287 280 316 333 316 324 132 196 222 242 255 279 260 157 128 323 321 321
284 295 304 310 309 318 330 328 332 334 335 345 332 306 289 267 286 270 264 240 244 214 204 309 342 350 335 27 327 2 326 331 340 279 297 198 200 219 237 237 269 148 98 224 277 310 298
277 286 297 303 303 314 323 324 332 333 329 329 330 306 294 275 273 300 295 279 259 246 255 241 229 320 255 32 352 289 325 325 254 288 322 287 193 215 185 230 247 285 257 292 309 291 307